Location: Beetenbrück
(52.8113°N, 9.5946°E)
Time: 21:12:46
(UTC+00:00)

In-Cosmos 22 Rocket - Pass Details

Date: 14 April 2026
Orbit: 788 x 886 km, 81.2° (Epoch: 12 May)

Event Time Altitude Azimuth Distance (km) Brightness Sun altitude
Rises 19:18:46 0° 346° (NNW) 3,328 8.0 -9.1°
Reaches altitude 10° 19:21:10 10° 347° (NNW) 2,383 7.2 -9.4°
Maximum altitude 19:26:33 88° 75° (ENE) 800 4.1 -10.1°
Drops below altitude 10° 19:31:51 10° 168° (SSE) 2,348 6.1 -10.8°
Enters shadow 19:33:20 - 168° (SSE) 2,934 6.6 -11.0°
